Location: Burbank
(38.7788°N, 114.0429°W)
Time: 14:02:42
(UTC+00:00)

Vanguard 2 - Pass Details

Date: 14 May 2026
Orbit: 553 x 2894 km, 32.9° (Epoch: 6 June)

Event Time Altitude Azimuth Distance (km) Brightness Sun altitude
Rises 10:00:45 0° 242° (WSW) 6,508 - -22.9°
Reaches altitude 10° 10:04:58 10° 239° (WSW) 5,619 - -22.4°
Exits shadow 10:10:47 27° 232° (SW) 4,455 10.8 -21.6°
Maximum altitude 10:22:12 62° 164° (SSE) 3,019 10.3 -20.2°
Drops below altitude 10° 10:36:31 10° 89° (E) 4,767 12.2 -18.2°
Sets 10:39:45 0° 86° (E) 5,510 12.7 -17.7°
